1484352000.23,770,5.88,71110.5,-12.13,-11.81,-11.93,0,*62
1484352001.51,771,5.88,71112.0,-12.11,-12.15,-12.15,0,*62
1484352002.79,772,5.88,71114.0,-12.11,-11.93,-11.97,0,*65
1484352004.07,773,5.88,71114.5,-12.11,-11.59,-11.73,0,*68
1484352005.3,774,5.88,71114.3,-12.09,-11.45,-11.67,0,*6E
1484352006.53,775,5.88,71114.3,-12.09,-11.41,-11.59,0,*66
1484352007.78,776,5.88,71112.8,-12.09,-11.55,-11.59,0,*60
1484352009.03,777,5.88,71116.8,-12.07,-11.23,-11.29,0,*69
1484352010.29,778,5.88,71114.8,-12.07,-11.23,-11.29,0,*66
1484352011.52,779,5.88,71116.5,-12.07,-11.11,-11.23,0,*6C
1484352012.72,780,5.88,71118.5,-12.05,-11.19,-11.23,0,*60
1484352013.98,781,5.88,71114.3,-12.01,-11.07,-11.19,0,*63
1484352015.18,782,5.88,71118.3,-11.99,-11.15,-11.23,0,*68
1484352016.38,783,5.88,71116.3,-11.99,-11.15,-11.23,0,*69
1484352017.59,784,5.88,71112.8,-11.99,-11.11,-11.19,0,*63
1484352018.79,785,5.88,71116.3,-11.99,-11.19,-11.45,0,*63
1484352019.99,786,5.88,71116.8,-11.99,-11.19,-11.41,0,*64
1484352021.24,787,5.88,71118.5,-11.97,-11.19,-11.33,0,*6E
1484352022.47,788,5.88,71112.5,-11.99,-11.29,-11.41,0,*69
1484352023.7,789,5.88,71116.0,-11.97,-11.19,-11.41,0,*65
1484352024.93,790,5.88,71114.0,-11.91,-11.15,-11.37,0,*66
1484352026.17,791,5.88,71116.5,-11.95,-11.29,-11.41,0,*6D
1484352027.38,792,5.88,71118.0,-11.95,-11.23,-11.41,0,*64
1484352028.65,793,5.88,71116.0,-11.91,-11.29,-11.51,0,*6A
1484352029.88,794,5.88,71116.5,-11.91,-11.41,-11.51,0,*63
1484352031.13,795,5.88,71118.8,-11.89,-11.37,-11.45,0,*6F
1484352032.39,796,5.88,71116.3,-11.89,-11.45,-11.51,0,*6C
1484352033.65,797,5.88,71120.0,-11.87,-11.51,-11.51,0,*66
1484352034.91,798,5.88,71120.0,-11.87,-11.51,-11.59,0,*61
1484352036.17,799,5.88,71116.5,-11.87,-11.37,-11.59,0,*60
1484352037.43,800,5.88,71118.5,-11.87,-11.33,-11.63,0,*62
1484352038.69,801,5.88,71116.5,-11.85,-11.41,-11.59,0,*6D
1484352039.93,802,5.88,71116.3,-11.83,-11.41,-11.55,0,*64
1484352041.14,803,5.88,71120.0,-11.83,-11.41,-11.41,0,*60
1484352042.38,804,5.88,71118.0,-11.83,-11.41,-11.55,0,*62
1484352043.62,805,5.88,71120.3,-11.83,-11.45,-11.59,0,*6B
1484352044.88,806,5.88,71120.8,-11.83,-11.67,-11.85,0,*69
1484352046.13,807,5.88,71118.3,-11.83,-11.73,-11.85,0,*6D
1484352047.42,808,5.88,71122.8,-11.81,-11.77,-11.85,0,*64
1484352048.67,809,5.88,71120.5,-11.79,-11.77,-11.81,0,*66
1484352049.95,810,5.88,71120.8,-11.81,-11.77,-11.81,0,*69
1484352051.2,811,5.88,71122.0,-11.79,-11.67,-11.81,0,*6E
1484352052.49,812,5.88,71120.5,-11.81,-11.63,-11.77,0,*67
1484352053.74,813,5.88,71122.5,-11.79,-11.77,-11.85,0,*69
1484352054.99,814,5.88,71120.5,-11.79,-11.81,-11.81,0,*63
1484352056.24,815,5.88,71124.0,-11.79,-11.85,-11.81,0,*66
1484352057.49,816,5.88,71122.8,-11.75,-11.73,-11.81,0,*60
1484352058.76,817,5.88,71124.5,-11.73,-11.73,-11.77,0,*6E
1484352060.03,818,5.88,71122.5,-11.73,-11.81,-11.77,0,*6C
1484352061.28,819,5.88,71124.0,-11.75,-11.73,-11.81,0,*6F
1484352062.56,820,5.88,71124.0,-11.71,-11.67,-11.77,0,*6D
1484352063.84,821,5.88,71124.0,-11.73,-11.77,-11.77,0,*6F
1484352065.11,822,5.88,71128.0,-11.73,-11.81,-11.81,0,*6C
1484352066.38,823,5.88,71126.8,-11.73,-11.77,-11.81,0,*64
1484352067.66,824,5.88,71124.8,-11.73,-11.81,-11.89,0,*62
1484352068.93,825,5.88,71126.8,-11.73,-11.81,-11.93,0,*68
1484352070.22,826,5.94,71130.3,-11.71,-11.77,-11.85,0,*67
1484352071.48,827,5.88,71122.5,-11.69,-11.77,-11.89,0,*63
1484352072.76,828,5.88,71126.8,-11.71,-11.85,-11.85,0,*64
1484352074.05,829,5.88,71124.0,-11.71,-11.85,-11.85,0,*65
1484352075.33,830,5.88,71124.0,-11.71,-11.85,-11.89,0,*61
1484352076.59,831,5.88,71124.3,-11.69,-11.89,-11.89,0,*65
1484352077.88,832,5.88,71126.0,-11.71,-11.89,-11.89,0,*6F
1484352079.11,833,5.88,71124.3,-11.69,-11.89,-12.03,0,*66
1484352080.38,834,5.88,71126.8,-11.71,-11.89,-12.03,0,*68
1484352081.61,835,5.88,71122.8,-11.69,-11.89,-12.03,0,*60
1484352082.87,836,5.88,71126.0,-11.71,-11.89,-12.03,0,*6A
1484352084.1,837,5.88,71126.5,-11.69,-11.97,-12.03,0,*6D
1484352085.33,838,5.88,71124.3,-11.69,-11.97,-12.03,0,*62
1484352086.56,839,5.88,71126.5,-11.69,-12.03,-12.11,0,*6E
1484352087.85,840,5.88,71124.8,-11.67,-11.93,-12.07,0,*63
1484352089.13,841,5.88,71124.8,-11.67,-11.97,-12.07,0,*66
1484352090.42,842,5.88,71122.8,-11.67,-12.07,-12.11,0,*68
1484352091.67,843,5.88,71122.8,-11.67,-12.11,-12.21,0,*6D
1484352092.91,844,5.88,71124.0,-11.65,-12.11,-12.25,0,*6C
1484352094.12,845,5.88,71124.5,-11.65,-12.21,-12.21,0,*6A
1484352095.33,846,5.88,71126.5,-11.65,-12.21,-12.21,0,*69
1484352096.58,847,5.88,71126.5,-11.67,-12.21,-12.21,0,*6A
1484352097.81,848,5.88,71124.0,-11.67,-12.25,-12.25,0,*65
1484352099.02,849,5.88,71124.5,-11.65,-12.21,-12.25,0,*62
1484352100.23,850,5.88,71124.8,-11.65,-12.21,-12.25,0,*6A
1484352101.49,851,5.88,71128.0,-11.67,-12.25,-12.35,0,*6C
1484352102.76,852,5.88,71122.8,-11.67,-12.21,-12.35,0,*6B
1484352103.97,853,5.88,71124.0,-11.65,-12.25,-12.39,0,*60
1484352105.23,854,5.88,71126.0,-11.67,-12.21,-12.35,0,*6D
1484352106.47,855,5.88,71124.0,-11.65,-12.35,-12.39,0,*67
1484352107.73,856,5.88,71124.5,-11.65,-12.35,-12.35,0,*68
1484352108.97,857,5.88,71120.8,-11.65,-12.21,-12.35,0,*6C
1484352110.18,858,5.88,71126.5,-11.65,-12.21,-12.39,0,*6F
1484352111.41,859,5.88,71126.5,-11.65,-12.35,-12.39,0,*6B
1484352112.68,860,5.88,71126.0,-11.65,-12.35,-12.35,0,*6D
1484352113.94,861,5.88,71126.5,-11.65,-12.35,-12.35,0,*6C
1484352115.17,862,5.88,71126.8,-11.65,-12.35,-12.39,0,*63
1484352116.4,863,5.88,71124.3,-11.61,-12.35,-12.43,0,*6B
1484352117.63,864,5.88,71128.8,-11.61,-12.35,-12.47,0,*68
1484352118.85,865,5.88,71128.5,-11.59,-12.39,-12.39,0,*67
1484352120.06,866,5.88,71124.3,-11.61,-12.47,-12.47,0,*6F
1484352121.26,867,5.88,71128.0,-11.61,-12.43,-12.47,0,*6A
1484352122.49,868,5.88,71128.3,-11.59,-12.29,-12.39,0,*6B
1484352123.73,869,5.88,71128.3,-11.59,-12.29,-12.39,0,*6A
1484352124.96,870,5.88,71130.0,-11.59,-12.29,-12.39,0,*62
1484352126.19,871,5.88,71128.5,-11.59,-12.39,-12.39,0,*62
1484352127.42,872,5.88,71128.0,-11.59,-12.47,-12.47,0,*61
1484352128.67,873,5.88,71128.0,-11.61,-12.53,-12.61,0,*6A
1484352129.9,874,5.88,71128.3,-11.59,-12.47,-12.47,0,*67
1484352131.16,875,5.88,71128.3,-11.61,-12.53,-12.61,0,*6C
1484352132.41,876,5.88,71128.3,-11.61,-12.79,-12.79,0,*6E
1484352133.66,877,5.88,71124.3,-11.59,-12.83,-12.97,0,*61
1484352134.89,878,5.88,71128.0,-11.61,-12.79,-12.93,0,*64
1484352136.15,879,5.88,71130.8,-11.61,-12.79,-12.79,0,*61
1484352137.43,880,5.88,71130.3,-11.59,-12.71,-12.75,0,*68
1484352138.69,881,5.88,71128.5,-11.61,-12.65,-12.79,0,*6B
1484352139.97,882,5.94,71134.5,-11.59,-12.75,-12.75,0,*6E
1484352141.2,883,5.88,71130.8,-11.61,-12.75,-12.89,0,*67
1484352142.46,884,5.88,71128.8,-11.61,-12.65,-12.79,0,*6E
1484352143.71,885,5.88,71130.8,-11.61,-12.65,-12.75,0,*63
1484352144.96,886,5.88,71126.8,-11.61,-12.65,-12.65,0,*61
1484352146.21,887,5.88,71130.8,-11.61,-12.65,-12.65,0,*60
1484352147.46,888,5.88,71130.5,-11.65,-12.79,-12.83,0,*6E
1484352148.71,889,5.88,71126.8,-11.61,-12.65,-12.65,0,*6E
1484352149.95,890,5.88,71132.5,-11.61,-12.61,-12.65,0,*62
1484352151.2,891,5.88,71130.5,-11.61,-12.61,-12.65,0,*63
1484352152.45,892,5.88,71128.5,-11.61,-12.61,-12.75,0,*61
1484352153.71,893,5.88,71128.5,-11.61,-12.65,-12.75,0,*64
1484352154.95,894,5.88,71128.5,-11.61,-12.61,-12.65,0,*66
1484352156.21,895,5.88,71130.5,-11.61,-12.53,-12.61,0,*62
1484352157.46,896,5.88,71126.8,-11.61,-12.53,-12.61,0,*61
1484352158.72,897,5.88,71130.0,-11.61,-12.53,-12.61,0,*60
1484352159.97,898,5.88,71130.5,-11.61,-12.53,-12.53,0,*6E
1484352161.23,899,5.88,71128.5,-11.61,-12.53,-12.53,0,*6F
1484352162.49,900,5.88,71128.3,-11.61,-12.53,-12.53,0,*6E
1484352163.72,901,5.88,71128.0,-11.61,-12.47,-12.53,0,*6A
1484352164.98,902,5.88,71130.0,-11.65,-12.53,-12.57,0,*6C
1484352166.21,903,5.88,71126.8,-11.61,-12.47,-12.53,0,*68
1484352167.44,904,5.88,71126.5,-11.61,-12.47,-12.53,0,*6F
1484352168.64,905,5.88,71130.3,-11.61,-12.47,-12.47,0,*6B
1484352169.85,906,5.88,71128.5,-11.61,-12.47,-12.47,0,*68
1484352171.05,907,5.88,71130.5,-11.61,-12.47,-12.47,0,*69
1484352172.25,908,5.88,71128.0,-11.61,-12.47,-12.47,0,*66
1484352173.48,909,5.88,71130.8,-11.59,-12.39,-12.43,0,*61
1484352174.71,910,5.88,71130.0,-11.59,-12.43,-12.39,0,*69
1484352175.94,911,5.88,71132.0,-11.59,-12.43,-12.43,0,*65
1484352177.14,912,5.88,71126.0,-11.61,-12.47,-12.47,0,*6D
1484352178.34,913,5.88,71128.3,-11.61,-12.43,-12.43,0,*6C
1484352179.54,914,5.88,71130.3,-11.61,-12.47,-12.43,0,*6F
1484352180.77,915,5.88,71130.5,-11.59,-12.43,-12.39,0,*6C
1484352181.97,916,5.88,71128.8,-11.61,-12.43,-12.43,0,*69
1484352183.2,917,5.88,71126.5,-11.59,-12.43,-12.43,0,*63
1484352184.42,918,5.88,71126.3,-11.59,-12.43,-12.39,0,*61
1484352185.63,919,5.88,71130.3,-11.61,-12.47,-12.47,0,*66
1484352186.85,920,5.88,71130.5,-11.59,-12.39,-12.43,0,*6A
1484352188.08,921,5.88,71128.3,-11.59,-12.39,-12.39,0,*66
1484352189.31,922,5.88,71130.5,-11.59,-12.39,-12.29,0,*64
1484352190.54,923,5.88,71128.3,-11.59,-12.25,-12.25,0,*64
1484352191.75,924,5.88,71128.8,-11.57,-12.25,-12.29,0,*61
1484352192.95,925,5.88,71128.8,-11.57,-12.39,-12.29,0,*6D
1484352194.16,926,5.88,71130.8,-11.57,-12.39,-12.29,0,*6E
1484352195.36,927,5.88,71130.8,-11.57,-12.25,-12.25,0,*6E
1484352196.57,928,5.88,71128.5,-11.57,-12.29,-12.25,0,*6D
1484352197.77,929,5.88,71126.3,-11.57,-12.25,-12.25,0,*60
1484352199.03,930,5.88,71130.3,-11.55,-12.21,-12.11,0,*69
1484352200.31,931,5.88,71130.8,-11.55,-12.07,-12.07,0,*6B
1484352201.57,932,5.88,71128.3,-11.57,-12.11,-12.15,0,*6E
1484352202.85,933,5.88,71130.5,-11.55,-12.07,-12.11,0,*6E
1484352204.13,934,5.88,71130.8,-11.55,-12.11,-12.07,0,*69
1484352205.41,935,5.88,71130.5,-11.55,-12.07,-12.11,0,*68
1484352206.69,936,5.88,71130.5,-11.55,-12.11,-12.11,0,*6C
1484352207.97,937,5.88,71130.8,-11.55,-12.11,-12.07,0,*6A
1484352209.26,938,5.88,71130.8,-11.55,-12.07,-12.11,0,*65
1484352210.54,939,5.88,71128.3,-11.55,-12.07,-12.07,0,*63
1484352211.8,940,5.88,71128.0,-11.51,-12.21,-12.11,0,*6A
1484352213.05,941,5.88,71124.8,-11.51,-12.21,-12.11,0,*6B
1484352214.31,942,5.88,71128.3,-11.51,-12.25,-12.11,0,*6C
1484352215.59,943,5.88,71128.8,-11.51,-12.11,-12.11,0,*6A
1484352216.82,944,5.88,71128.8,-11.49,-12.21,-12.07,0,*60
1484352218.08,945,5.88,71128.3,-11.51,-12.21,-12.11,0,*6F
1484352219.34,946,5.88,71128.8,-11.51,-12.25,-12.11,0,*68
1484352220.59,947,5.94,71134.8,-11.49,-12.15,-12.07,0,*64
1484352221.85,948,5.88,71128.0,-11.49,-12.15,-12.07,0,*6B
1484352223.08,949,5.88,71130.3,-11.49,-12.21,-12.11,0,*6A
1484352224.31,950,5.88,71128.0,-11.49,-12.15,-12.03,0,*66
1484352225.52,951,5.88,71124.3,-11.49,-12.21,-12.21,0,*60
1484352226.75,952,5.88,71128.3,-11.51,-12.25,-12.21,0,*6E
1484352227.98,953,5.88,71128.5,-11.49,-12.15,-12.21,0,*65
1484352229.19,954,5.88,71130.5,-11.49,-12.29,-12.21,0,*6D
1484352230.45,955,5.88,71130.5,-11.47,-12.21,-12.15,0,*6D
1484352231.69,956,5.88,71130.0,-11.47,-12.21,-12.21,0,*69
1484352232.93,957,5.88,71130.0,-11.47,-12.29,-12.21,0,*60
1484352234.16,958,5.88,71130.5,-11.47,-12.29,-12.21,0,*6F
1484352235.37,959,5.88,71130.5,-11.45,-12.25,-12.29,0,*68
1484352236.62,960,5.88,71130.5,-11.47,-12.35,-12.29,0,*61
1484352237.86,961,5.88,71126.8,-11.47,-12.29,-12.21,0,*65
1484352239.12,962,5.88,71130.0,-11.47,-12.35,-12.21,0,*6B
1484352240.38,963,5.88,71130.3,-11.47,-12.29,-12.15,0,*60
1484352241.63,964,5.88,71126.0,-11.47,-12.21,-12.15,0,*6F
1484352242.89,965,5.88,71132.0,-11.47,-12.21,-12.15,0,*6E
1484352244.15,966,5.88,71128.3,-11.47,-12.15,-12.21,0,*6D
1484352245.38,967,5.88,71130.0,-11.47,-12.29,-12.21,0,*63
1484352246.61,968,5.88,71130.3,-11.45,-12.29,-12.11,0,*6D
1484352247.85,969,5.88,71130.0,-11.47,-12.29,-12.21,0,*6D
1484352249.06,970,5.88,71126.3,-11.45,-12.25,-12.25,0,*6F
1484352250.28,971,5.88,71130.3,-11.45,-12.25,-12.15,0,*6D
1484352251.51,972,5.88,71130.3,-11.45,-12.29,-12.15,0,*62
1484352252.76,973,5.88,71128.0,-11.45,-12.15,-12.15,0,*6C
1484352253.97,974,5.88,71130.0,-11.45,-12.25,-12.25,0,*6B
1484352255.2,975,5.88,71132.3,-11.43,-12.29,-12.25,0,*60
1484352256.45,976,5.88,71128.8,-11.43,-12.29,-12.15,0,*60
1484352257.68,977,5.88,71130.0,-11.43,-12.25,-12.25,0,*6E
1484352258.88,978,5.88,71130.5,-11.41,-12.25,-12.21,0,*67
1484352260.13,979,5.88,71130.8,-11.43,-12.25,-12.15,0,*63
1484352261.36,980,5.88,71128.0,-11.43,-12.25,-12.25,0,*66
1484352262.59,981,5.88,71128.5,-11.43,-12.25,-12.25,0,*67
1484352263.84,982,5.88,71130.8,-11.43,-12.29,-12.15,0,*6B
1484352265.1,983,5.88,71128.5,-11.43,-12.25,-12.15,0,*66
1484352266.32,984,5.88,71128.5,-11.45,-12.29,-12.15,0,*6B
1484352267.55,985,5.88,71130.8,-11.45,-12.25,-12.15,0,*66
1484352268.78,986,5.88,71130.0,-11.45,-12.25,-12.15,0,*65
1484352270.06,987,5.88,71128.5,-11.43,-12.15,-12.11,0,*65
1484352271.33,988,5.88,71132.3,-11.43,-12.15,-12.15,0,*6E
1484352272.61,989,5.88,71130.3,-11.43,-12.15,-12.11,0,*6B
1484352273.86,990,5.88,71130.8,-11.43,-12.15,-12.03,0,*60
1484352275.11,991,5.88,71130.8,-11.41,-12.11,-12.11,0,*64
1484352276.39,992,5.88,71130.5,-11.43,-12.15,-12.15,0,*65
1484352277.64,993,5.88,71130.5,-11.41,-12.11,-12.11,0,*66
1484352278.87,994,5.88,71130.8,-11.41,-12.21,-12.07,0,*65
1484352280.12,995,5.88,71128.3,-11.41,-12.11,-11.97,0,*6D
1484352281.37,996,5.88,71128.3,-11.41,-12.11,-12.07,0,*64
1484352282.62,997,5.88,71130.3,-11.41,-12.11,-12.07,0,*65
1484352283.87,998,5.88,71130.3,-11.41,-12.11,-12.11,0,*6D
1484352285.1,999,5.88,71130.0,-11.41,-12.21,-12.11,0,*6F
1484352286.36,1000,5.88,71132.5,-11.41,-12.07,-12.07,0,*54
1484352287.62,1001,5.88,71124.5,-11.41,-12.11,-12.11,0,*55
1484352288.87,1002,5.88,71128.3,-11.41,-12.11,-12.07,0,*51
1484352290.14,1003,5.88,71132.3,-11.39,-12.07,-12.07,0,*58
1484352291.41,1004,5.88,71132.0,-11.39,-12.11,-12.07,0,*58
1484352292.66,1005,5.88,71128.5,-11.39,-12.21,-12.11,0,*5D
1484352293.91,1006,5.88,71128.8,-11.39,-12.21,-12.11,0,*5E
1484352295.17,1007,5.88,71134.0,-11.39,-12.11,-12.07,0,*5B
1484352296.44,1008,5.88,71128.5,-11.39,-12.11,-12.07,0,*54
1484352297.71,1009,5.88,71132.0,-11.39,-12.11,-12.11,0,*52
1484352298.97,1010,5.88,71130.5,-11.37,-12.07,-12.03,0,*50
1484352300.24,1011,5.88,71130.8,-11.39,-12.11,-12.07,0,*5C
1484352301.5,1012,5.88,71132.0,-11.37,-12.03,-12.07,0,*52
1484352302.74,1013,5.88,71128.3,-11.37,-12.03,-12.03,0,*57
1484352304.03,1014,5.88,71128.8,-11.37,-12.07,-12.07,0,*50
1484352305.3,1015,5.88,71134.5,-11.37,-12.15,-12.03,0,*56
1484352306.54,1016,5.88,71128.8,-11.35,-12.03,-12.07,0,*54
1484352307.8,1017,5.88,71130.5,-11.35,-12.15,-12.15,0,*51
1484352309.06,1018,5.88,71128.3,-11.35,-12.07,-12.07,0,*5E
1484352310.27,1019,5.88,71128.5,-11.35,-12.03,-12.03,0,*5F
1484352311.51,1020,5.88,71128.5,-11.33,-12.03,-12.03,0,*53
1484352312.77,1021,5.88,71134.0,-11.35,-12.07,-12.07,0,*54
1484352314.01,1022,5.88,71128.0,-11.35,-12.07,-12.03,0,*53
1484352315.25,1023,5.88,71132.0,-11.35,-12.03,-12.07,0,*52
1484352316.51,1024,5.88,71134.5,-11.35,-12.15,-12.07,0,*52
1484352317.78,1025,5.88,71130.3,-11.35,-12.07,-12.07,0,*50
1484352319.01,1026,5.88,71130.0,-11.33,-12.03,-12.03,0,*55
1484352320.25,1027,5.88,71124.8,-11.33,-12.03,-12.03,0,*54
1484352321.51,1028,5.88,71128.5,-11.35,-12.15,-12.15,0,*5D
1484352322.79,1029,5.88,71128.3,-11.33,-12.15,-12.11,0,*5E
1484352324.06,1030,5.88,71130.3,-11.35,-12.07,-12.07,0,*54
1484352325.32,1031,5.88,71130.0,-11.33,-12.11,-12.03,0,*50
1484352326.61,1032,5.88,71128.5,-11.33,-12.15,-12.11,0,*54
1484352327.89,1033,5.88,71132.3,-11.33,-12.15,-12.15,0,*51
1484352329.18,1034,5.88,71130.8,-11.33,-12.11,-12.11,0,*56
1484352330.44,1035,5.88,71128.8,-11.31,-12.15,-12.15,0,*55
1484352331.72,1036,5.88,71128.8,-11.33,-12.15,-12.15,0,*54
1484352333.01,1037,5.88,71130.5,-11.33,-12.15,-12.15,0,*55
1484352334.27,1038,5.88,71128.3,-11.31,-12.15,-12.11,0,*5C
1484352335.53,1039,5.88,71130.5,-11.31,-12.15,-12.15,0,*59
1484352336.79,1040,5.88,71126.0,-11.31,-12.15,-12.15,0,*57
1484352338.05,1041,5.88,71130.0,-11.31,-12.15,-12.15,0,*56
1484352339.31,1042,5.88,71126.5,-11.31,-12.15,-12.15,0,*55
1484352340.57,1043,5.88,71124.8,-11.31,-12.15,-12.15,0,*54
1484352341.84,1044,5.88,71128.3,-11.27,-12.11,-12.11,0,*54
1484352343.1,1045,5.88,71124.3,-11.31,-12.15,-12.15,0,*52
1484352344.36,1046,5.88,71126.0,-11.31,-12.15,-12.15,0,*51
1484352345.62,1047,5.88,71124.0,-11.31,-12.15,-12.15,0,*50
1484352346.88,1048,5.88,71122.3,-11.27,-12.11,-12.15,0,*5C
1484352348.15,1049,5.88,71126.5,-11.27,-12.11,-12.15,0,*5D
1484352349.41,1050,5.88,71128.0,-11.27,-12.15,-12.15,0,*51
1484352350.67,1051,5.88,71122.5,-11.27,-12.15,-12.15,0,*50
1484352351.94,1052,5.88,71124.8,-11.27,-12.15,-12.15,0,*53
1484352353.2,1053,5.88,71124.8,-11.27,-12.15,-12.11,0,*56
1484352354.47,1054,5.88,71124.3,-11.27,-12.11,-12.11,0,*55
1484352355.76,1055,5.88,71128.0,-11.25,-12.11,-12.11,0,*56
1484352357.02,1056,5.88,71124.5,-11.27,-12.15,-12.11,0,*53
1484352358.27,1057,5.88,71126.5,-11.27,-12.25,-12.11,0,*51
1484352359.49,1058,5.88,71126.0,-11.31,-12.21,-12.21,0,*5E
1484352360.71,1059,5.88,71124.3,-11.27,-12.25,-12.29,0,*54
1484352361.95,1060,5.88,71124.3,-11.27,-12.25,-12.15,0,*51
1484352363.16,1061,5.88,71120.0,-11.27,-12.39,-12.29,0,*52
1484352364.43,1062,5.88,71122.8,-11.27,-12.53,-12.53,0,*50
1484352365.64,1063,5.88,71126.3,-11.27,-12.43,-12.43,0,*51
1484352366.86,1064,5.88,71126.0,-11.27,-12.43,-12.43,0,*56
1484352368.12,1065,5.88,71122.5,-11.27,-12.53,-12.53,0,*57
1484352369.39,1066,5.88,71122.3,-11.27,-12.61,-12.71,0,*55
1484352370.65,1067,5.88,71120.3,-11.31,-12.71,-12.57,0,*56
1484352371.92,1068,5.88,71120.8,-11.27,-12.57,-12.57,0,*5A
1484352373.18,1069,5.88,71118.8,-11.27,-12.57,-12.53,0,*5F
1484352374.45,1070,5.88,71116.5,-11.31,-12.83,-12.71,0,*59
1484352375.71,1071,5.88,71120.8,-11.31,-12.83,-12.71,0,*58
1484352376.98,1072,5.88,71120.8,-11.27,-12.79,-12.79,0,*51
1484352378.22,1073,5.88,71122.5,-11.27,-12.93,-12.79,0,*54
1484352379.48,1074,5.88,71118.8,-11.27,-12.83,-12.83,0,*57
1484352380.7,1075,5.88,71118.5,-11.27,-12.93,-12.93,0,*56
1484352381.92,1076,5.88,71122.5,-11.31,-12.97,-12.97,0,*52
1484352383.18,1077,5.88,71116.3,-11.31,-12.83,-12.75,0,*5A
1484352384.44,1078,5.88,71122.8,-11.31,-12.75,-12.61,0,*59
1484352385.71,1079,5.88,71120.0,-11.31,-12.75,-12.71,0,*59
1484352386.98,1080,5.88,71118.8,-11.27,-12.71,-12.57,0,*58
1484352388.24,1081,5.88,71116.3,-11.31,-12.75,-12.61,0,*5F
1484352389.5,1082,5.88,71116.3,-11.27,-12.65,-12.57,0,*5F
1484352390.77,1083,5.88,71120.5,-11.31,-12.75,-12.71,0,*5C
1484352392.01,1084,5.88,71116.8,-11.31,-13.01,-12.97,0,*51
1484352393.22,1085,5.88,71116.8,-11.31,-12.89,-12.97,0,*51
1484352394.48,1086,5.88,71118.0,-11.33,-12.89,-12.83,0,*55
1484352395.74,1087,5.88,71116.8,-11.33,-13.01,-13.11,0,*5F
1484352396.97,1088,5.88,71118.0,-11.33,-13.15,-13.15,0,*51
1484352398.21,1089,5.88,71122.5,-11.35,-13.33,-13.23,0,*57
1484352399.44,1090,5.88,71118.3,-11.33,-13.19,-13.15,0,*54
1484352400.68,1091,5.88,71116.3,-11.33,-12.89,-12.89,0,*59
1484352401.94,1092,5.88,71118.5,-11.33,-12.75,-12.89,0,*59
1484352403.21,1093,5.88,71116.5,-11.35,-12.79,-12.79,0,*5D
1484352404.46,1094,5.88,71118.8,-11.33,-12.83,-12.89,0,*56
1484352405.67,1095,5.88,71122.3,-11.35,-12.89,-12.89,0,*5B
1484352406.91,1096,5.88,71116.5,-11.35,-13.61,-13.73,0,*5B
1484352408.16,1097,5.88,71120.3,-11.35,-13.79,-13.79,0,*59
1484352409.44,1098,5.88,71116.5,-11.37,-13.79,-13.79,0,*54
1484352410.67,1099,5.88,71120.8,-11.37,-13.65,-13.65,0,*55
1484352411.89,1100,5.88,71118.8,-11.39,-13.51,-13.43,0,*59
1484352413.11,1101,5.88,71116.0,-11.39,-13.43,-13.55,0,*5C
1484352414.33,1102,5.88,71118.0,-11.39,-13.51,-13.51,0,*58
1484352415.54,1103,5.88,71114.5,-11.39,-13.23,-13.23,0,*59
1484352416.75,1104,5.88,71118.0,-11.39,-13.15,-13.15,0,*5E
1484352417.95,1105,5.88,71116.0,-11.41,-13.11,-13.11,0,*50
1484352419.17,1106,5.88,71116.8,-11.39,-13.11,-13.11,0,*5C
1484352420.38,1107,5.88,71118.0,-11.41,-13.19,-13.19,0,*52
1484352421.59,1108,5.88,71112.8,-11.41,-13.19,-13.19,0,*5D
1484352422.79,1109,5.88,71118.3,-11.41,-13.11,-13.07,0,*5B
1484352424.0,1110,5.88,71114.0,-11.41,-12.97,-12.97,0,*54
1484352425.23,1111,5.88,71118.0,-11.41,-12.93,-12.83,0,*54
1484352426.46,1112,5.88,71112.0,-11.43,-12.89,-12.89,0,*54
1484352427.7,1113,5.88,71112.8,-11.43,-12.97,-12.97,0,*55
1484352428.93,1114,5.88,71112.5,-11.43,-13.11,-13.11,0,*52
1484352430.16,1115,5.88,71114.3,-11.43,-13.11,-13.11,0,*53
1484352431.36,1116,5.88,71114.8,-11.41,-13.11,-13.11,0,*52
1484352432.62,1117,5.88,71112.3,-11.43,-13.01,-13.11,0,*50
1484352433.85,1118,5.88,71118.8,-11.43,-12.97,-12.89,0,*51
1484352435.06,1119,5.88,71116.5,-11.45,-12.89,-12.97,0,*56
1484352436.29,1120,5.88,71114.8,-11.43,-12.97,-12.97,0,*55
1484352437.52,1121,5.88,71114.3,-11.43,-13.11,-13.15,0,*50
1484352438.78,1122,5.88,71110.3,-11.43,-13.01,-13.11,0,*56
1484352440.03,1123,5.88,71112.0,-11.45,-13.01,-13.01,0,*50
1484352441.26,1124,5.88,71112.5,-11.47,-13.15,-13.11,0,*51
1484352442.46,1125,5.88,71110.5,-11.45,-13.07,-13.15,0,*55
1484352443.69,1126,5.88,71110.3,-11.47,-13.15,-13.15,0,*57
1484352444.94,1127,5.88,71114.5,-11.47,-13.01,-13.07,0,*50
1484352446.18,1128,5.88,71112.0,-11.47,-12.93,-12.93,0,*59
1484352447.44,1129,5.88,71112.8,-11.45,-12.83,-12.83,0,*5A
1484352448.67,1130,5.88,71112.8,-11.47,-12.89,-12.93,0,*5B
1484352449.88,1131,5.88,71114.5,-11.45,-12.89,-12.97,0,*5C
1484352451.16,1132,5.88,71110.0,-11.47,-13.01,-13.01,0,*52
1484352452.42,1133,5.88,71114.5,-11.45,-13.01,-13.01,0,*51
1484352453.64,1134,5.88,71112.3,-11.47,-13.07,-13.07,0,*54
1484352454.87,1135,5.88,71114.8,-11.47,-13.15,-13.15,0,*55
1484352456.11,1136,5.88,71114.5,-11.47,-12.93,-12.93,0,*56
1484352457.34,1137,5.88,71112.0,-11.47,-12.89,-12.93,0,*5C
1484352458.55,1138,5.88,71114.0,-11.49,-12.89,-12.89,0,*56
1484352459.76,1139,5.88,71112.5,-11.49,-12.89,-12.89,0,*57
1484352461.04,1140,5.88,71114.8,-11.51,-12.83,-12.79,0,*55
1484352462.24,1141,5.88,71112.5,-11.49,-13.07,-13.15,0,*5B
1484352463.46,1142,5.88,71116.8,-11.49,-13.07,-13.19,0,*54
1484352464.71,1143,5.88,71112.3,-11.49,-13.01,-13.01,0,*5A
1484352465.96,1144,5.88,71112.5,-11.47,-12.89,-13.01,0,*52
1484352467.18,1145,5.88,71114.8,-11.49,-12.93,-12.93,0,*5C
1484352468.39,1146,5.88,71112.8,-11.49,-12.93,-12.93,0,*5F
1484352469.59,1147,5.88,71112.0,-11.49,-12.89,-12.93,0,*55
1484352470.83,1148,5.88,71114.3,-11.51,-13.07,-12.97,0,*50
1484352472.05,1149,5.88,71114.8,-11.51,-13.07,-13.07,0,*59
1484352473.28,1150,5.88,71114.8,-11.51,-12.97,-13.07,0,*59
1484352474.52,1151,5.88,71116.8,-11.51,-12.97,-12.93,0,*54
1484352475.78,1152,5.88,71116.5,-11.51,-12.93,-12.83,0,*52
1484352477.01,1153,5.88,71116.8,-11.51,-12.93,-12.93,0,*52
1484352478.24,1154,5.88,71116.8,-11.55,-12.97,-13.07,0,*59
1484352479.48,1155,5.88,71118.0,-11.55,-12.93,-12.97,0,*54
1484352480.72,1156,5.88,71116.8,-11.55,-12.93,-12.97,0,*57
1484352481.96,1157,5.88,71116.3,-11.55,-12.97,-12.97,0,*52
1484352483.22,1158,5.88,71116.5,-11.55,-12.83,-12.93,0,*5C
1484352484.45,1159,5.88,71116.3,-11.55,-12.93,-12.97,0,*58
1484352485.66,1160,5.94,71122.3,-11.57,-13.23,-13.23,0,*54
1484352486.9,1161,5.88,71116.8,-11.55,-13.11,-13.11,0,*57
1484352488.13,1162,5.88,71116.5,-11.57,-13.01,-13.11,0,*57
1484352489.37,1163,5.88,71116.3,-11.55,-12.93,-12.93,0,*55
1484352490.61,1164,5.88,71118.5,-11.55,-12.93,-12.93,0,*52
1484352491.84,1165,5.88,71118.5,-11.57,-13.01,-13.11,0,*50
1484352493.07,1166,5.88,71114.8,-11.57,-12.97,-13.01,0,*5C
1484352494.27,1167,5.88,71116.5,-11.57,-13.15,-13.23,0,*56
1484352495.48,1168,5.88,71116.3,-11.57,-13.15,-13.23,0,*59
1484352496.71,1169,5.88,71116.8,-11.57,-12.97,-13.01,0,*53
1484352497.94,1170,5.88,71116.0,-11.59,-12.89,-12.89,0,*5B
1484352499.18,1171,5.88,71120.0,-11.59,-12.89,-12.97,0,*55
1484352500.41,1172,5.88,71118.8,-11.59,-12.89,-12.97,0,*56
1484352501.67,1173,5.88,71122.5,-11.59,-12.83,-12.89,0,*52
1484352502.9,1174,5.88,71116.0,-11.59,-12.89,-12.97,0,*50
1484352504.16,1175,5.88,71118.0,-11.59,-12.83,-12.97,0,*5B
1484352505.37,1176,5.88,71118.8,-11.61,-13.15,-13.19,0,*5A
1484352506.65,1177,5.88,71120.0,-11.59,-13.01,-13.01,0,*5C
1484352507.88,1178,5.88,71120.0,-11.61,-12.93,-13.01,0,*52
1484352509.12,1179,5.88,71118.8,-11.59,-12.97,-12.89,0,*5D
1484352510.35,1180,5.88,71116.5,-11.61,-13.01,-13.07,0,*59